Ellensburg, WA

1:39 PM PDT on April 28, 2017 (GMT -0700)
Bowers

Weather History for KELN - March, 2013

Change the Weather History Date:

Thursday, March 14, 2013

  Actual Average (KYKM) Record (KYKM)
Temperature  
Mean Temperature 54 °F -  
Max Temperature 64 °F 55 °F 72 °F (1992)
Min Temperature 43 °F 30 °F 19 °F (1953)
Degree Days  
Heating Degree Days 12    
Growing Degree Days 4 (Base 50)    
Moisture  
Dew Point 39 °F    
Average Humidity 69    
Maximum Humidity 86    
Minimum Humidity 41    
Precipitation  
Precipitation 0.00 in - - ()
Sea Level Pressure  
Sea Level Pressure 30.05 in    
Wind  
Wind Speed 5 mph (WNW)    
Max Wind Speed 18 mph    
Max Gust Speed 24 mph    
Visibility 10 miles    
Events      
Averages and records for this station are not official NWS values.
T = Trace of Precipitation, MM = Missing Value Source: NWS Daily Summary

Daily Weather History Graph

Daily Weather History Graph

Search for Another Location

Airport or City:

Trip Planner

Search our weather history database for the weather conditions in past years. The results will help you decide how hot, cold, wet, or windy it might be!

Date:

Astronomy

Mar. 14, 2013 Rise Set
Actual Time 7:16 AM PDT 7:06 PM PDT
Civil Twilight 6:45 AM PDT 7:37 PM PDT
Nautical Twilight 6:10 AM PDT 8:12 PM PDT
Astronomical Twilight 5:34 AM PDT 8:48 PM PDT
Moon 8:19 AM PDT (3/14) 10:44 PM PDT (3/14)
Length of Visible Light 12h 51m
Length of Day
11h 50m
Waxing Crescent, 9% of the Moon is Illuminated
Mar 14
Waxing Crescent
Mar 19
First Quarter
Mar 27
Full
Apr 2
Last Quarter
Apr 10
New

Hourly Weather History & Observations

Time (PDT) Temp. Windchill Dew Point Humidity Pressure Visibility Wind Dir Wind Speed Gust Speed Precip Events Conditions
12:53 AM 44.1 °F 40.1 °F 37.9 °F 79% 30.10 in 10.0 mi ESE 6.9 mph - N/A   Clear
1:53 AM 46.0 °F 43.9 °F 39.9 °F 79% 30.10 in 10.0 mi ENE 4.6 mph - N/A   Clear
2:53 AM 45.0 °F - 39.9 °F 82% 30.09 in 10.0 mi Calm Calm - N/A   Clear
3:53 AM 44.1 °F - 39.0 °F 82% 30.09 in 10.0 mi Calm Calm - N/A   Clear
4:53 AM 46.0 °F - 39.9 °F 79% 30.08 in 10.0 mi Calm Calm - N/A   Mostly Cloudy
5:53 AM 44.1 °F 41.5 °F 39.9 °F 85% 30.05 in 10.0 mi North 4.6 mph - N/A   Clear
6:53 AM 43.0 °F - 39.0 °F 86% 30.05 in 10.0 mi Calm Calm - N/A   Clear
7:53 AM 43.0 °F - 39.0 °F 86% 30.05 in 10.0 mi Calm Calm - N/A   Clear
8:53 AM 44.1 °F 42.5 °F 39.9 °F 85% 30.06 in 10.0 mi West 3.5 mph - N/A   Clear
9:53 AM 46.9 °F - 41.0 °F 80% 30.07 in 10.0 mi Calm Calm - N/A   Clear
10:53 AM 48.9 °F - 42.1 °F 77% 30.06 in 10.0 mi Calm Calm - N/A   Clear
11:53 AM 51.1 °F - 43.0 °F 74% 30.05 in 10.0 mi SSE 5.8 mph - N/A   Clear
12:53 PM 51.1 °F - 43.0 °F 74% 30.04 in 10.0 mi Calm Calm - N/A   Clear
1:53 PM 54.0 °F - 44.1 °F 69% 30.01 in 10.0 mi Calm Calm - N/A   Clear
2:53 PM 57.9 °F - 44.1 °F 60% 29.99 in 10.0 mi Calm Calm - N/A   Clear
3:53 PM 62.1 °F - 45.0 °F 53% 29.98 in 10.0 mi SSW 4.6 mph - N/A   Partly Cloudy
4:53 PM 64.0 °F - 41.0 °F 43% 29.97 in 10.0 mi Variable 5.8 mph - N/A   Clear
5:53 PM 60.1 °F - 36.0 °F 41% 29.96 in 10.0 mi NW 17.3 mph - N/A   Mostly Cloudy
6:53 PM 55.9 °F - 35.1 °F 45% 29.99 in 10.0 mi NW 18.4 mph 24.2 mph N/A   Clear
7:53 PM 52.0 °F - 34.0 °F 50% 30.01 in 10.0 mi WNW 17.3 mph - N/A   Clear
8:53 PM 52.0 °F - 34.0 °F 50% 30.04 in 10.0 mi WNW 18.4 mph - N/A   Mostly Cloudy
9:53 PM 46.9 °F - 36.0 °F 66% 30.07 in 10.0 mi NW 16.1 mph - N/A   Clear
10:53 PM 46.0 °F 42.5 °F 36.0 °F 68% 30.09 in 10.0 mi WSW 6.9 mph - N/A   Mostly Cloudy
11:53 PM 45.0 °F 39.7 °F 36.0 °F 71% 30.09 in 10.0 mi NW 10.4 mph - N/A   Clear